Total_Precipitation_Accumulation
1.02 1.21 1.06 0.71 0.66 0.57 0.51 0.58 0.50 0.34 0.33 0.43 0.44 0.35 0.25 0.25 0.31 0.39 0.42 0.47 0.42 0.45 0.48 0.52 0.59 0.67 0.85 0.93 0.96 1.06 1.10 1.28 1.43 1.58 1.75 1.79 1.73 1.64 1.63 1.57 1.50 1.45 1.52 1.59
1.16 1.02 0.56 0.38 0.46 0.55 0.60 0.68 0.54 0.37 0.32 0.48 0.48 0.38 0.28 0.25 0.30 0.39 0.39 0.46 0.48 0.48 0.53 0.58 0.64 0.70 0.86 0.98 0.97 1.06 1.15 1.27 1.32 1.41 1.54 1.68 1.70 1.67 1.65 1.58 1.58 1.48 1.45 1.48
0.86 0.59 0.32 0.47 0.61 0.74 0.70 0.61 0.50 0.46 0.43 0.54 0.60 0.55 0.34 0.28 0.27 0.35 0.40 0.45 0.55 0.58 0.60 0.62 0.66 0.72 0.86 0.99 1.02 1.03 1.15 1.28 1.33 1.44 1.58 1.72 1.90 1.88 1.87 1.71 1.57 1.51 1.47 1.42
0.63 0.38 0.37 0.58 0.68 0.76 0.74 0.42 0.43 0.50 0.77 0.86 0.74 0.85 0.42 0.30 0.29 0.35 0.41 0.45 0.55 0.59 0.61 0.67 0.67 0.74 0.84 0.92 1.03 1.06 1.18 1.30 1.34 1.49 1.64 1.64 1.76 1.77 1.65 1.51 1.46 1.43 1.43 1.43
0.78 0.43 0.45 0.58 0.50 0.57 0.59 0.37 0.48 0.61 0.85 1.01 0.76 0.84 0.47 0.27 0.34 0.35 0.39 0.42 0.51 0.59 0.57 0.63 0.65 0.65 0.75 0.84 0.96 1.05 1.19 1.33 1.38 1.44 1.60 1.62 1.56 1.56 1.58 1.57 1.50 1.48 1.47 1.42
0.62 0.43 0.49 0.45 0.34 0.43 0.57 0.67 0.82 0.93 1.34 1.60 0.67 0.64 0.52 0.45 0.53 0.43 0.39 0.42 0.51 0.58 0.60 0.61 0.59 0.57 0.68 0.81 0.94 1.05 1.15 1.25 1.34 1.38 1.51 1.63 1.56 1.49 1.51 1.57 1.58 1.54 1.54 1.49
0.78 0.57 0.47 0.42 0.55 0.70 0.94 1.42 2.09 2.23 2.21 1.34 0.37 0.49 0.59 0.48 0.47 0.51 0.49 0.47 0.49 0.54 0.59 0.62 0.52 0.54 0.59 0.70 0.86 0.98 1.13 1.18 1.23 1.29 1.38 1.43 1.54 1.49 1.40 1.37 1.42 1.51 1.56 1.50
0.90 0.75 0.55 0.48 0.63 0.90 1.01 1.26 1.69 1.67 1.14 0.52 0.30 0.48 0.52 0.39 0.33 0.34 0.36 0.44 0.47 0.50 0.51 0.53 0.51 0.52 0.54 0.57 0.69 0.83 0.95 1.11 1.21 1.24 1.28 1.32 1.39 1.50 1.39 1.31 1.26 1.33 1.41 1.37
0.91 0.64 0.39 0.37 0.37 0.58 0.89 0.98 0.85 1.12 0.81 0.56 0.46 0.42 0.34 0.18 0.18 0.21 0.27 0.37 0.47 0.52 0.51 0.47 0.48 0.50 0.50 0.55 0.61 0.75 0.85 0.99 1.17 1.29 1.28 1.27 1.31 1.38 1.38 1.31 1.27 1.26 1.27 1.31
0.99 0.78 0.39 0.36 0.48 0.62 0.72 0.88 1.08 1.50 1.26 0.72 0.46 0.43 0.48 0.34 0.32 0.26 0.28 0.35 0.45 0.51 0.55 0.49 0.44 0.47 0.48 0.51 0.58 0.66 0.80 0.91 1.03 1.22 1.35 1.31 1.26 1.26 1.33 1.35 1.34 1.31 1.27 1.29
0.95 1.00 0.62 0.56 0.78 0.83 0.81 1.09 1.36 1.42 1.07 0.86 0.58 0.57 0.57 0.48 0.47 0.38 0.33 0.38 0.46 0.50 0.54 0.50 0.44 0.43 0.47 0.50 0.60 0.65 0.73 0.86 0.96 1.06 1.23 1.31 1.28 1.28 1.32 1.35 1.30 1.32 1.30 1.27
0.90 1.18 0.82 0.51 0.49 0.50 0.69 0.95 1.18 1.45 1.05 0.66 0.62 0.59 0.44 0.41 0.43 0.36 0.33 0.34 0.38 0.43 0.47 0.46 0.42 0.41 0.46 0.54 0.60 0.69 0.75 0.77 0.86 0.97 1.10 1.23 1.27 1.28 1.31 1.28 1.28 1.33 1.34 1.30
1.34 1.71 1.42 0.93 0.77 0.71 0.82 0.76 0.83 1.02 1.00 0.68 0.58 0.51 0.29 0.25 0.27 0.28 0.30 0.32 0.34 0.40 0.47 0.48 0.47 0.45 0.47 0.55 0.60 0.68 0.76 0.74 0.77 0.92 1.04 1.17 1.25 1.22 1.23 1.18 1.20 1.34 1.45 1.43
1.66 1.75 1.24 1.01 0.84 0.79 0.73 0.58 0.59 0.92 1.14 0.65 0.39 0.37 0.24 0.21 0.24 0.27 0.32 0.34 0.35 0.37 0.41 0.47 0.54 0.53 0.49 0.51 0.55 0.60 0.69 0.74 0.76 0.82 0.97 1.08 1.17 1.14 1.10 1.09 1.08 1.19 1.36 1.46
1.39 1.39 0.64 0.34 0.28 0.38 0.44 0.40 0.44 0.60 0.59 0.52 0.32 0.30 0.30 0.28 0.31 0.33 0.34 0.34 0.34 0.34 0.39 0.47 0.56 0.56 0.57 0.58 0.59 0.58 0.62 0.72 0.79 0.79 0.90 0.95 1.04 1.11 1.07 1.03 1.05 1.12 1.23 1.30
1.27 1.25 0.64 0.35 0.21 0.28 0.34 0.29 0.29 0.34 0.30 0.28 0.22 0.26 0.28 0.27 0.25 0.26 0.27 0.31 0.34 0.34 0.37 0.41 0.46 0.52 0.59 0.65 0.66 0.66 0.66 0.71 0.78 0.79 0.85 0.88 0.98 1.09 1.12 1.05 1.06 1.14 1.23 1.25
1.25 1.27 1.11 0.63 0.27 0.48 0.55 0.34 0.30 0.32 0.31 0.28 0.32 0.33 0.28 0.24 0.25 0.30 0.30 0.31 0.32 0.33 0.33 0.34 0.42 0.52 0.59 0.65 0.66 0.69 0.70 0.73 0.79 0.79 0.82 0.87 0.97 1.02 1.09 1.09 1.11 1.18 1.26 1.26
1.05 1.23 1.49 1.01 0.72 0.98 0.52 0.26 0.26 0.30 0.32 0.30 0.29 0.25 0.25 0.28 0.29 0.34 0.32 0.33 0.32 0.34 0.36 0.35 0.42 0.52 0.55 0.60 0.62 0.66 0.65 0.77 0.83 0.83 0.81 0.85 0.93 0.96 1.06 1.11 1.13 1.24 1.31 1.25
0.59 1.11 1.65 1.38 0.99 0.53 0.30 0.27 0.36 0.44 0.44 0.33 0.25 0.19 0.18 0.21 0.27 0.35 0.30 0.31 0.34 0.36 0.40 0.40 0.43 0.49 0.48 0.55 0.59 0.62 0.59 0.70 0.80 0.85 0.78 0.79 0.87 0.93 1.02 1.08 1.15 1.23 1.33 1.27
0.58 1.04 1.75 1.49 1.10 0.55 0.36 0.24 0.28 0.41 0.56 0.33 0.24 0.22 0.20 0.25 0.39 0.41 0.34 0.32 0.32 0.32 0.36 0.41 0.42 0.45 0.46 0.51 0.54 0.55 0.59 0.63 0.73 0.80 0.71 0.73 0.80 0.85 0.96 1.03 1.11 1.17 1.20 1.21
1.00 1.50 1.69 1.24 0.99 0.42 0.28 0.25 0.30 0.62 0.69 0.36 0.29 0.29 0.29 0.37 0.43 0.39 0.36 0.36 0.37 0.36 0.36 0.37 0.40 0.43 0.46 0.48 0.49 0.52 0.58 0.62 0.66 0.74 0.69 0.73 0.76 0.80 0.90 0.98 1.01 1.08 1.14 1.14
0.82 1.10 1.06 0.95 1.03 0.54 0.31 0.36 0.62 0.71 0.39 0.31 0.30 0.29 0.31 0.32 0.30 0.30 0.32 0.37 0.44 0.43 0.38 0.39 0.40 0.42 0.43 0.44 0.48 0.51 0.54 0.58 0.64 0.68 0.69 0.75 0.80 0.81 0.85 0.92 0.93 0.97 1.08 1.12
0.58 0.78 0.86 0.81 0.67 0.44 0.38 0.47 0.51 0.42 0.35 0.28 0.29 0.30 0.31 0.29 0.29 0.33 0.35 0.39 0.46 0.46 0.42 0.41 0.43 0.41 0.41 0.43 0.48 0.55 0.57 0.58 0.65 0.68 0.68 0.74 0.82 0.85 0.86 0.87 0.89 0.94 1.01 1.09
0.47 0.46 0.57 0.53 0.39 0.30 0.29 0.30 0.29 0.27 0.29 0.28 0.28 0.30 0.31 0.30 0.29 0.34 0.36 0.39 0.42 0.44 0.45 0.46 0.47 0.45 0.43 0.43 0.49 0.57 0.61 0.59 0.64 0.68 0.68 0.72 0.77 0.83 0.88 0.84 0.81 0.84 0.94 1.06
0.38 0.41 0.46 0.41 0.27 0.25 0.24 0.23 0.23 0.21 0.20 0.20 0.22 0.23 0.26 0.27 0.29 0.33 0.36 0.39 0.44 0.45 0.48 0.48 0.49 0.50 0.50 0.48 0.52 0.58 0.61 0.59 0.63 0.62 0.62 0.67 0.69 0.79 0.89 0.88 0.83 0.82 0.84 1.01
0.26 0.34 0.41 0.36 0.26 0.32 0.27 0.22 0.22 0.22 0.20 0.22 0.23 0.21 0.20 0.23 0.28 0.30 0.32 0.36 0.44 0.48 0.48 0.49 0.50 0.51 0.55 0.54 0.55 0.58 0.60 0.58 0.57 0.58 0.58 0.61 0.64 0.71 0.81 0.85 0.87 0.95 0.93 0.96